Location: Pasarilla del Rebollar
(40.6790°N, 5.0062°W)
Time: 11:56:00
(UTC+00:00)

Cosmos 1066 Rocket - Pass Details

Date: 22 April 2026
Orbit: 797 x 892 km, 81.2° (Epoch: 16 May)

Event Time Altitude Azimuth Distance (km) Brightness Sun altitude
Exits shadow 03:38:39 20° 179° (S) 1,789 5.6 -19.8°
Maximum altitude 03:42:26 74° 97° (E) 836 4.2 -19.2°
Drops below altitude 10° 03:47:46 10° 13° (NNE) 2,377 7.2 -18.4°
Sets 03:50:09 0° 12° (NNE) 3,312 8.0 -18.0°
